Find Starlink 4505

NORAD ID: 53556 Int'l Des: 2022-101 Owner: SPXS Country: US Constellation: starlink operational
LEOCIRCULAR

当前视图

正在加载3D地球...

About Starlink 4505

Starlink 4505 (NORAD 53556) is a starlink constellation satellite (v1.5) launched Aug 19, 2022 by SPXS of US. It operates in LEO, CIRCULAR orbit with a mass of 300.00 kg.

关于 Starlink 4505

正在加载描述...

即将过境

Passes for default location (London). Set your location on the main map for personalized predictions.

高度历史

Loading altitude history...

两行轨道根数

1 53556U 22101AF 26194.44156477 .00000124 00000-0 25887-4 0 9991
2 53556 53.1594 219.3412 0001095 76.4501 283.6612 15.08829917215290
Epoch: Jul 13, 2026 • Age: 18 hours

当前状态

高度 541.4 km
远地点 / 近地点 N/A
速度 7.60 km/s
星下点 31.97°N, 5.72°E
发射日期 Aug 19, 2022
运行时间 3.8 years
类型 internet

技术详情

分类 Payload
质量 300.00 kg
干质量 290.00 kg
总质量 300.00 kg
长度 0.20 m
直径 2.80 m
跨度 9.00 m
形状 Box + pan
制造商 SPXS
平台类型 Starlink
阶段状态 In Orbit
所有者/国家 SPXS/US

Most Searched